Year,Month,Day,Hour,Minute,Value (Times are PST for temperature in C)
2015,07,23,00,00,16.00
2015,07,23,00,01,15.90
2015,07,23,00,02,15.90
2015,07,23,00,03,15.90
2015,07,23,00,04,15.90
2015,07,23,00,05,15.90
2015,07,23,00,06,15.90
2015,07,23,00,07,15.80
2015,07,23,00,08,15.80
2015,07,23,00,09,15.80
2015,07,23,00,10,15.80
2015,07,23,00,11,15.80
2015,07,23,00,12,15.80
2015,07,23,00,13,15.80
2015,07,23,00,14,15.80
2015,07,23,00,15,15.70
2015,07,23,00,16,15.70
2015,07,23,00,17,15.70
2015,07,23,00,18,15.70
2015,07,23,00,19,15.70
2015,07,23,00,20,15.70
2015,07,23,00,21,15.70
2015,07,23,00,22,15.70
2015,07,23,00,23,15.70
2015,07,23,00,24,15.70
2015,07,23,00,25,15.70
2015,07,23,00,26,15.70
2015,07,23,00,27,15.70
2015,07,23,00,28,15.70
2015,07,23,00,29,15.70
2015,07,23,00,30,15.70
2015,07,23,00,31,15.70
2015,07,23,00,32,15.70
2015,07,23,00,33,15.70
2015,07,23,00,34,15.70
2015,07,23,00,35,15.70
2015,07,23,00,36,15.70
2015,07,23,00,37,15.70
2015,07,23,00,38,15.70
2015,07,23,00,39,15.80
2015,07,23,00,40,15.70
2015,07,23,00,41,15.70
2015,07,23,00,42,15.80
2015,07,23,00,43,15.80
2015,07,23,00,44,15.80
2015,07,23,00,45,15.80
2015,07,23,00,46,15.80
2015,07,23,00,47,15.80
2015,07,23,00,48,15.80
2015,07,23,00,49,15.70
2015,07,23,00,50,15.70
2015,07,23,00,51,15.70
2015,07,23,00,52,15.70
2015,07,23,00,53,15.70
2015,07,23,00,54,15.70
2015,07,23,00,55,15.70
2015,07,23,00,56,15.70
2015,07,23,00,57,15.70
2015,07,23,00,58,15.70
2015,07,23,00,59,15.70
2015,07,23,01,00,15.70
2015,07,23,01,01,15.60
2015,07,23,01,02,15.60
2015,07,23,01,03,15.60
2015,07,23,01,04,15.60
2015,07,23,01,05,15.60
2015,07,23,01,06,15.60
2015,07,23,01,07,15.60
2015,07,23,01,08,15.60
2015,07,23,01,09,15.60
2015,07,23,01,10,15.60
2015,07,23,01,11,15.60
2015,07,23,01,12,15.60
2015,07,23,01,13,15.60
2015,07,23,01,14,15.60
2015,07,23,01,15,15.60
2015,07,23,01,16,15.60
2015,07,23,01,17,15.60
2015,07,23,01,18,15.60
2015,07,23,01,19,15.60
2015,07,23,01,20,15.60
2015,07,23,01,21,15.60
2015,07,23,01,22,15.60
2015,07,23,01,23,15.60
2015,07,23,01,24,15.60
2015,07,23,01,25,15.60
2015,07,23,01,26,15.50
2015,07,23,01,27,15.50
2015,07,23,01,28,15.50
2015,07,23,01,29,15.50
2015,07,23,01,30,15.50
2015,07,23,01,31,15.50
2015,07,23,01,32,15.50
2015,07,23,01,33,15.50
2015,07,23,01,34,15.50
2015,07,23,01,35,15.50
2015,07,23,01,36,15.50
2015,07,23,01,37,15.40
2015,07,23,01,38,15.40
2015,07,23,01,39,15.40
2015,07,23,01,40,15.40
2015,07,23,01,41,15.40
2015,07,23,01,42,15.40
2015,07,23,01,43,15.40
2015,07,23,01,44,15.40
2015,07,23,01,45,15.40
2015,07,23,01,46,15.40
2015,07,23,01,47,15.30
2015,07,23,01,48,15.30
2015,07,23,01,49,15.30
2015,07,23,01,50,15.30
2015,07,23,01,51,15.30
2015,07,23,01,52,15.30
2015,07,23,01,53,15.30
2015,07,23,01,54,15.30
2015,07,23,01,55,15.30
2015,07,23,01,56,15.30
2015,07,23,01,57,15.30
2015,07,23,01,58,15.20
2015,07,23,01,59,15.20
2015,07,23,02,00,15.20
2015,07,23,02,01,15.20
2015,07,23,02,02,15.20
2015,07,23,02,03,15.20
2015,07,23,02,04,15.20
2015,07,23,02,05,15.20
2015,07,23,02,06,15.20
2015,07,23,02,07,15.20
2015,07,23,02,08,15.20
2015,07,23,02,09,15.20
2015,07,23,02,10,15.20
2015,07,23,02,11,15.20
2015,07,23,02,12,15.20
2015,07,23,02,13,15.20
2015,07,23,02,14,15.20
2015,07,23,02,15,15.20
2015,07,23,02,16,15.10
2015,07,23,02,17,15.20
2015,07,23,02,18,15.20
2015,07,23,02,19,15.20
2015,07,23,02,20,15.20
2015,07,23,02,21,15.20
2015,07,23,02,22,15.20
2015,07,23,02,23,15.20
2015,07,23,02,24,15.20
2015,07,23,02,25,15.20
2015,07,23,02,26,15.20
2015,07,23,02,27,15.20
2015,07,23,02,28,15.20
2015,07,23,02,29,15.20
2015,07,23,02,30,15.20
2015,07,23,02,31,15.20
2015,07,23,02,32,15.20
2015,07,23,02,33,15.20
2015,07,23,02,34,15.10
2015,07,23,02,35,15.10
2015,07,23,02,36,15.10
2015,07,23,02,37,15.10
2015,07,23,02,38,15.10
2015,07,23,02,39,15.00
2015,07,23,02,40,15.00
2015,07,23,02,41,15.00
2015,07,23,02,42,15.00
2015,07,23,02,43,15.00
2015,07,23,02,44,15.00
2015,07,23,02,45,15.00
2015,07,23,02,46,15.00
2015,07,23,02,47,15.00
2015,07,23,02,48,15.00
2015,07,23,02,49,15.00
2015,07,23,02,50,15.00
2015,07,23,02,51,15.00
2015,07,23,02,52,15.00
2015,07,23,02,53,15.00
2015,07,23,02,54,15.00
2015,07,23,02,55,15.00
2015,07,23,02,56,15.00
2015,07,23,02,57,14.90
2015,07,23,02,58,14.80
2015,07,23,02,59,14.80
2015,07,23,03,00,14.80
2015,07,23,03,01,14.80
2015,07,23,03,02,14.70
2015,07,23,03,03,14.70
2015,07,23,03,04,14.70
2015,07,23,03,05,14.70
2015,07,23,03,06,14.70
2015,07,23,03,07,14.70
2015,07,23,03,08,14.70
2015,07,23,03,09,14.60
2015,07,23,03,10,14.60
2015,07,23,03,11,14.60
2015,07,23,03,12,14.60
2015,07,23,03,13,14.60
2015,07,23,03,14,14.60
2015,07,23,03,15,14.60
2015,07,23,03,16,14.60
2015,07,23,03,17,14.60
2015,07,23,03,18,14.50
2015,07,23,03,19,14.50
2015,07,23,03,20,14.50
2015,07,23,03,21,14.50
2015,07,23,03,22,14.60
2015,07,23,03,23,14.60
2015,07,23,03,24,14.60
2015,07,23,03,25,14.60
2015,07,23,03,26,14.70
2015,07,23,03,27,14.70
2015,07,23,03,28,14.70
2015,07,23,03,29,14.70
2015,07,23,03,30,14.70
2015,07,23,03,31,14.70
2015,07,23,03,32,14.70
2015,07,23,03,33,14.70
2015,07,23,03,34,14.70
2015,07,23,03,35,14.80
2015,07,23,03,36,14.80
2015,07,23,03,37,14.80
2015,07,23,03,38,14.80
2015,07,23,03,39,14.80
2015,07,23,03,40,14.80
2015,07,23,03,41,14.80
2015,07,23,03,42,14.80
2015,07,23,03,43,14.80
2015,07,23,03,44,14.80
2015,07,23,03,45,14.80
2015,07,23,03,46,14.70
2015,07,23,03,47,14.70
2015,07,23,03,48,14.70
2015,07,23,03,49,14.70
2015,07,23,03,50,14.70
2015,07,23,03,51,14.70
2015,07,23,03,52,14.70
2015,07,23,03,53,14.70
2015,07,23,03,54,14.70
2015,07,23,03,55,14.70
2015,07,23,03,56,14.70
2015,07,23,03,57,14.70
2015,07,23,03,58,14.70
2015,07,23,03,59,14.60
2015,07,23,04,00,14.60
2015,07,23,04,01,14.60
2015,07,23,04,02,14.60
2015,07,23,04,03,14.60
2015,07,23,04,04,14.60
2015,07,23,04,05,14.60
2015,07,23,04,06,14.50
2015,07,23,04,07,14.50
2015,07,23,04,08,14.50
2015,07,23,04,09,14.50
2015,07,23,04,10,14.40
2015,07,23,04,11,14.40
2015,07,23,04,12,14.40
2015,07,23,04,13,14.40
2015,07,23,04,14,14.40
2015,07,23,04,15,14.40
2015,07,23,04,16,14.40
2015,07,23,04,17,14.40
2015,07,23,04,18,14.30
2015,07,23,04,19,14.30
2015,07,23,04,20,14.30
2015,07,23,04,21,14.30
2015,07,23,04,22,14.30
2015,07,23,04,23,14.20
2015,07,23,04,24,14.20
2015,07,23,04,25,14.20
2015,07,23,04,26,14.20
2015,07,23,04,27,14.10
2015,07,23,04,28,14.10
2015,07,23,04,29,14.10
2015,07,23,04,30,14.10
2015,07,23,04,31,14.00
2015,07,23,04,32,14.00
2015,07,23,04,33,14.00
2015,07,23,04,34,13.90
2015,07,23,04,35,13.90
2015,07,23,04,36,13.90
2015,07,23,04,37,13.80
2015,07,23,04,38,13.80
2015,07,23,04,39,13.80
2015,07,23,04,40,13.70
2015,07,23,04,41,13.70
2015,07,23,04,42,13.70
2015,07,23,04,43,13.60
2015,07,23,04,44,13.60
2015,07,23,04,45,13.60
2015,07,23,04,46,13.50
2015,07,23,04,47,13.50
2015,07,23,04,48,13.50
2015,07,23,04,49,13.40
2015,07,23,04,50,13.40
2015,07,23,04,51,13.40
2015,07,23,04,52,13.40
2015,07,23,04,53,13.40
2015,07,23,04,54,13.30
2015,07,23,04,55,13.30
2015,07,23,04,56,13.30
2015,07,23,04,57,13.30
2015,07,23,04,58,13.30
2015,07,23,04,59,13.30
2015,07,23,05,00,13.30
2015,07,23,05,01,13.20
2015,07,23,05,02,13.20
2015,07,23,05,03,13.20
2015,07,23,05,04,13.30
2015,07,23,05,05,13.30
2015,07,23,05,06,13.30
2015,07,23,05,07,13.30
2015,07,23,05,08,13.30
2015,07,23,05,09,13.30
2015,07,23,05,10,13.30
2015,07,23,05,11,13.30
2015,07,23,05,12,13.30
2015,07,23,05,13,13.30
2015,07,23,05,14,13.30
2015,07,23,05,15,13.30
2015,07,23,05,16,13.30
2015,07,23,05,17,13.30
2015,07,23,05,18,13.20
2015,07,23,05,19,13.20
2015,07,23,05,20,13.20
2015,07,23,05,21,13.20
2015,07,23,05,22,13.20
2015,07,23,05,23,13.10
2015,07,23,05,24,13.10
2015,07,23,05,25,13.10
2015,07,23,05,26,13.10
2015,07,23,05,27,13.00
2015,07,23,05,28,13.00
2015,07,23,05,29,13.00
2015,07,23,05,30,12.90
2015,07,23,05,31,12.90
2015,07,23,05,32,12.90
2015,07,23,05,33,12.90
2015,07,23,05,34,12.90
2015,07,23,05,35,12.80
2015,07,23,05,36,12.80
2015,07,23,05,37,12.80
2015,07,23,05,38,12.80
2015,07,23,05,39,12.80
2015,07,23,05,40,12.80
2015,07,23,05,41,12.80
2015,07,23,05,42,12.80
2015,07,23,05,43,12.80
2015,07,23,05,44,12.80
2015,07,23,05,45,12.80
2015,07,23,05,46,12.80
2015,07,23,05,47,12.80
2015,07,23,05,48,12.80
2015,07,23,05,49,12.80
2015,07,23,05,50,12.80
2015,07,23,05,51,12.80
2015,07,23,05,52,12.80
2015,07,23,05,53,12.80
2015,07,23,05,54,12.80
2015,07,23,05,55,12.80
2015,07,23,05,56,12.80
2015,07,23,05,57,12.80
2015,07,23,05,58,12.80
2015,07,23,05,59,12.80
2015,07,23,06,00,12.70
2015,07,23,06,01,12.70
2015,07,23,06,02,12.70
2015,07,23,06,03,12.70
2015,07,23,06,04,12.70
2015,07,23,06,05,12.70
2015,07,23,06,06,12.70
2015,07,23,06,07,12.70
2015,07,23,06,08,12.70
2015,07,23,06,09,12.70
2015,07,23,06,10,12.70
2015,07,23,06,11,12.70
2015,07,23,06,12,12.70
2015,07,23,06,13,12.70
2015,07,23,06,14,12.70
2015,07,23,06,15,12.80
2015,07,23,06,16,12.80
2015,07,23,06,17,12.80
2015,07,23,06,18,12.80
2015,07,23,06,19,12.80
2015,07,23,06,20,12.80
2015,07,23,06,21,12.80
2015,07,23,06,22,12.80
2015,07,23,06,23,12.80
2015,07,23,06,24,12.80
2015,07,23,06,25,12.80
2015,07,23,06,26,12.80
2015,07,23,06,27,12.80
2015,07,23,06,28,12.80
2015,07,23,06,29,12.80
2015,07,23,06,30,12.80
2015,07,23,06,31,12.80
2015,07,23,06,32,12.80
2015,07,23,06,33,12.80
2015,07,23,06,34,12.70
2015,07,23,06,35,12.70
2015,07,23,06,36,12.70
2015,07,23,06,37,12.70
2015,07,23,06,38,12.70
2015,07,23,06,39,12.70
2015,07,23,06,40,12.70
2015,07,23,06,41,12.70
2015,07,23,06,42,12.70
2015,07,23,06,43,12.70
2015,07,23,06,44,12.70
2015,07,23,06,45,12.70
2015,07,23,06,46,12.70
2015,07,23,06,47,12.70
2015,07,23,06,48,12.70
2015,07,23,06,49,12.70
2015,07,23,06,50,12.70
2015,07,23,06,51,12.70
2015,07,23,06,52,12.70
2015,07,23,06,53,12.70
2015,07,23,06,54,12.80
2015,07,23,06,55,12.80
2015,07,23,06,56,12.90
2015,07,23,06,57,13.00
2015,07,23,06,58,13.00
2015,07,23,06,59,13.10
2015,07,23,07,00,13.10
2015,07,23,07,01,13.20
2015,07,23,07,02,13.20
2015,07,23,07,03,13.20
2015,07,23,07,04,13.30
2015,07,23,07,05,13.30
2015,07,23,07,06,13.40
2015,07,23,07,07,13.40
2015,07,23,07,08,13.50
2015,07,23,07,09,13.50
2015,07,23,07,10,13.60
2015,07,23,07,11,13.60
2015,07,23,07,12,13.70
2015,07,23,07,13,13.70
2015,07,23,07,14,13.70
2015,07,23,07,15,13.80
2015,07,23,07,16,13.80
2015,07,23,07,17,13.80
2015,07,23,07,18,13.90
2015,07,23,07,19,13.90
2015,07,23,07,20,13.90
2015,07,23,07,21,13.90
2015,07,23,07,22,14.00
2015,07,23,07,23,14.00
2015,07,23,07,24,14.10
2015,07,23,07,25,14.10
2015,07,23,07,26,14.10
2015,07,23,07,27,14.20
2015,07,23,07,28,14.20
2015,07,23,07,29,14.20
2015,07,23,07,30,14.30
2015,07,23,07,31,14.30
2015,07,23,07,32,14.30
2015,07,23,07,33,14.40
2015,07,23,07,34,14.40
2015,07,23,07,35,14.40
2015,07,23,07,36,14.50
2015,07,23,07,37,14.50
2015,07,23,07,38,14.60
2015,07,23,07,39,14.60
2015,07,23,07,40,14.60
2015,07,23,07,41,14.70
2015,07,23,07,42,14.70
2015,07,23,07,43,14.70
2015,07,23,07,44,14.80
2015,07,23,07,45,14.80
2015,07,23,07,46,14.80
2015,07,23,07,47,14.90
2015,07,23,07,48,14.90
2015,07,23,07,49,15.00
2015,07,23,07,50,15.00
2015,07,23,07,51,15.00
2015,07,23,07,52,15.00
2015,07,23,07,53,15.00
2015,07,23,07,54,15.00
2015,07,23,07,55,15.00
2015,07,23,07,56,15.00
2015,07,23,07,57,15.00
2015,07,23,07,58,15.00
2015,07,23,07,59,15.00
2015,07,23,08,00,15.00
2015,07,23,08,01,15.10
2015,07,23,08,02,15.20
2015,07,23,08,03,15.20
2015,07,23,08,04,15.20
2015,07,23,08,05,15.30
2015,07,23,08,06,15.30
2015,07,23,08,07,15.30
2015,07,23,08,08,15.30
2015,07,23,08,09,15.40
2015,07,23,08,10,15.40
2015,07,23,08,11,15.50
2015,07,23,08,12,15.50
2015,07,23,08,13,15.60
2015,07,23,08,14,15.60
2015,07,23,08,15,15.60
2015,07,23,08,16,15.70
2015,07,23,08,17,15.70
2015,07,23,08,18,15.70
2015,07,23,08,19,15.70
2015,07,23,08,20,15.80
2015,07,23,08,21,15.80
2015,07,23,08,22,15.90
2015,07,23,08,23,15.90
2015,07,23,08,24,16.00
2015,07,23,08,25,16.00
2015,07,23,08,26,16.10
2015,07,23,08,27,16.10
2015,07,23,08,28,16.10
2015,07,23,08,29,16.20
2015,07,23,08,30,16.30
2015,07,23,08,31,16.30
2015,07,23,08,32,16.40
2015,07,23,08,33,16.40
2015,07,23,08,34,16.50
2015,07,23,08,35,16.60
2015,07,23,08,36,16.60
2015,07,23,08,37,16.70
2015,07,23,08,38,16.80
2015,07,23,08,39,16.90
2015,07,23,08,40,16.90
2015,07,23,08,41,17.00
2015,07,23,08,42,17.10
2015,07,23,08,43,17.10
2015,07,23,08,44,17.20
2015,07,23,08,45,17.20
2015,07,23,08,46,17.30
2015,07,23,08,47,17.30
2015,07,23,08,48,17.30
2015,07,23,08,49,17.30
2015,07,23,08,50,17.30
2015,07,23,08,51,17.40
2015,07,23,08,52,17.40
2015,07,23,08,53,17.40
2015,07,23,08,54,17.50
2015,07,23,08,55,17.50
2015,07,23,08,56,17.60
2015,07,23,08,57,17.60
2015,07,23,08,58,17.60
2015,07,23,08,59,17.70
2015,07,23,09,00,17.70
2015,07,23,09,01,17.70
2015,07,23,09,02,17.80
2015,07,23,09,03,17.80
2015,07,23,09,04,17.90
2015,07,23,09,05,18.00
2015,07,23,09,06,18.00
2015,07,23,09,07,18.10
2015,07,23,09,08,18.20
2015,07,23,09,09,18.30
2015,07,23,09,10,18.40
2015,07,23,09,11,18.60
2015,07,23,09,12,18.70
2015,07,23,09,13,18.80
2015,07,23,09,14,18.90
2015,07,23,09,15,19.00
2015,07,23,09,16,19.10
2015,07,23,09,17,19.20
2015,07,23,09,18,19.20
2015,07,23,09,19,19.30
2015,07,23,09,20,19.30
2015,07,23,09,21,19.40
2015,07,23,09,22,19.40
2015,07,23,09,23,19.40
2015,07,23,09,24,19.40
2015,07,23,09,25,19.40
2015,07,23,09,26,19.40
2015,07,23,09,27,19.40
2015,07,23,09,28,19.40
2015,07,23,09,29,19.40
2015,07,23,09,30,19.40
2015,07,23,09,31,19.50
2015,07,23,09,32,19.50
2015,07,23,09,33,19.50
2015,07,23,09,34,19.60
2015,07,23,09,35,19.70
2015,07,23,09,36,19.70
2015,07,23,09,37,19.60
2015,07,23,09,38,19.60
2015,07,23,09,39,19.50
2015,07,23,09,40,19.40
2015,07,23,09,41,19.40
2015,07,23,09,42,19.40
2015,07,23,09,43,19.50
2015,07,23,09,44,19.50
2015,07,23,09,45,19.50
2015,07,23,09,46,19.50
2015,07,23,09,47,19.40
2015,07,23,09,48,19.40
2015,07,23,09,49,19.40
2015,07,23,09,50,19.50
2015,07,23,09,51,19.50
2015,07,23,09,52,19.60
2015,07,23,09,53,19.70
2015,07,23,09,54,19.80
2015,07,23,09,55,19.80
2015,07,23,09,56,19.90
2015,07,23,09,57,20.00
2015,07,23,09,58,20.10
2015,07,23,09,59,20.20
2015,07,23,10,00,20.30
2015,07,23,10,01,20.40
2015,07,23,10,02,20.50
2015,07,23,10,03,20.60
2015,07,23,10,04,20.70
2015,07,23,10,05,20.70
2015,07,23,10,06,20.80
2015,07,23,10,07,20.90
2015,07,23,10,08,20.90
2015,07,23,10,09,21.00
2015,07,23,10,10,21.00
2015,07,23,10,11,21.00
2015,07,23,10,12,21.00
2015,07,23,10,13,21.00
2015,07,23,10,14,21.00
2015,07,23,10,15,21.10
2015,07,23,10,16,21.10
2015,07,23,10,17,21.20
2015,07,23,10,18,21.20
2015,07,23,10,19,21.30
2015,07,23,10,20,21.30
2015,07,23,10,21,21.30
2015,07,23,10,22,21.30
2015,07,23,10,23,21.40
2015,07,23,10,24,21.50
2015,07,23,10,25,21.60
2015,07,23,10,26,21.60
2015,07,23,10,27,21.60
2015,07,23,10,28,21.60
2015,07,23,10,29,21.50
2015,07,23,10,30,21.50
2015,07,23,10,31,21.40
2015,07,23,10,32,21.40
2015,07,23,10,33,21.30
2015,07,23,10,34,21.30
2015,07,23,10,35,21.30
2015,07,23,10,36,21.30
2015,07,23,10,37,21.30
2015,07,23,10,38,21.30
2015,07,23,10,39,21.40
2015,07,23,10,40,21.40
2015,07,23,10,41,21.40
2015,07,23,10,42,21.40
2015,07,23,10,43,21.40
2015,07,23,10,44,21.50
2015,07,23,10,45,21.50
2015,07,23,10,46,21.60
2015,07,23,10,47,21.60
2015,07,23,10,48,21.70
2015,07,23,10,49,21.70
2015,07,23,10,50,21.70
2015,07,23,10,51,21.70
2015,07,23,10,52,21.70
2015,07,23,10,53,21.70
2015,07,23,10,54,21.70
2015,07,23,10,55,21.60
2015,07,23,10,56,21.60
2015,07,23,10,57,21.60
2015,07,23,10,58,21.50
2015,07,23,10,59,21.50
2015,07,23,11,00,21.60
2015,07,23,11,01,21.60
2015,07,23,11,02,21.70
2015,07,23,11,03,21.70
2015,07,23,11,04,21.80
2015,07,23,11,05,21.80
2015,07,23,11,06,21.80
2015,07,23,11,07,21.80
2015,07,23,11,08,21.90
2015,07,23,11,09,21.90
2015,07,23,11,10,21.90
2015,07,23,11,11,21.90
2015,07,23,11,12,21.90
2015,07,23,11,13,21.90
2015,07,23,11,14,21.90
2015,07,23,11,15,21.80
2015,07,23,11,16,21.80
2015,07,23,11,17,21.90
2015,07,23,11,18,21.90
2015,07,23,11,19,21.90
2015,07,23,11,20,21.80
2015,07,23,11,21,21.70
2015,07,23,11,22,21.60
2015,07,23,11,23,21.60
2015,07,23,11,24,21.60
2015,07,23,11,25,21.50
2015,07,23,11,26,21.50
2015,07,23,11,27,21.40
2015,07,23,11,28,21.40
2015,07,23,11,29,21.50
2015,07,23,11,30,21.50
2015,07,23,11,31,21.60
2015,07,23,11,32,21.70
2015,07,23,11,33,21.70
2015,07,23,11,34,21.80
2015,07,23,11,35,21.80
2015,07,23,11,36,21.80
2015,07,23,11,37,21.80
2015,07,23,11,38,21.80
2015,07,23,11,39,21.90
2015,07,23,11,40,22.00
2015,07,23,11,41,22.10
2015,07,23,11,42,22.10
2015,07,23,11,43,22.10
2015,07,23,11,44,22.10
2015,07,23,11,45,22.00
2015,07,23,11,46,22.00
2015,07,23,11,47,22.00
2015,07,23,11,48,21.90
2015,07,23,11,49,21.90
2015,07,23,11,50,21.90
2015,07,23,11,51,21.90
2015,07,23,11,52,21.80
2015,07,23,11,53,21.80
2015,07,23,11,54,21.80
2015,07,23,11,55,21.70
2015,07,23,11,56,21.60
2015,07,23,11,57,21.50
2015,07,23,11,58,21.40
2015,07,23,11,59,21.40
2015,07,23,12,00,21.40
2015,07,23,12,01,21.50
2015,07,23,12,02,21.60
2015,07,23,12,03,21.70
2015,07,23,12,04,21.80
2015,07,23,12,05,21.90
2015,07,23,12,06,22.00
2015,07,23,12,07,22.10
2015,07,23,12,08,22.10
2015,07,23,12,09,22.10
2015,07,23,12,10,22.20
2015,07,23,12,11,22.20
2015,07,23,12,12,22.20
2015,07,23,12,13,22.20
2015,07,23,12,14,22.20
2015,07,23,12,15,22.20
2015,07,23,12,16,22.20
2015,07,23,12,17,22.20
2015,07,23,12,18,22.20
2015,07,23,12,19,22.20
2015,07,23,12,20,22.20
2015,07,23,12,21,22.10
2015,07,23,12,22,22.10
2015,07,23,12,23,22.20
2015,07,23,12,24,22.20
2015,07,23,12,25,22.30
2015,07,23,12,26,22.30
2015,07,23,12,27,22.30
2015,07,23,12,28,22.30
2015,07,23,12,29,22.40
2015,07,23,12,30,22.40
2015,07,23,12,31,22.40
2015,07,23,12,32,22.40
2015,07,23,12,33,22.40
2015,07,23,12,34,22.30
2015,07,23,12,35,22.30
2015,07,23,12,36,22.30
2015,07,23,12,37,22.20
2015,07,23,12,38,22.20
2015,07,23,12,39,22.20
2015,07,23,12,40,22.20
2015,07,23,12,41,22.30
2015,07,23,12,42,22.20
2015,07,23,12,43,22.20
2015,07,23,12,44,22.20
2015,07,23,12,45,22.30
2015,07,23,12,46,22.30
2015,07,23,12,47,22.30
2015,07,23,12,48,22.30
2015,07,23,12,49,22.30
2015,07,23,12,50,22.30
2015,07,23,12,51,22.30
2015,07,23,12,52,22.30
2015,07,23,12,53,22.40
2015,07,23,12,54,22.40
2015,07,23,12,55,22.40
2015,07,23,12,56,22.50
2015,07,23,12,57,22.50
2015,07,23,12,58,22.60
2015,07,23,12,59,22.60
2015,07,23,13,00,22.60
2015,07,23,13,01,22.60
2015,07,23,13,02,22.60
2015,07,23,13,03,22.70
2015,07,23,13,04,22.70
2015,07,23,13,05,22.80
2015,07,23,13,06,22.80
2015,07,23,13,07,22.80
2015,07,23,13,08,22.90
2015,07,23,13,09,22.90
2015,07,23,13,10,22.90
2015,07,23,13,11,22.90
2015,07,23,13,12,22.80
2015,07,23,13,13,22.80
2015,07,23,13,14,22.70
2015,07,23,13,15,22.70
2015,07,23,13,16,22.60
2015,07,23,13,17,22.60
2015,07,23,13,18,22.60
2015,07,23,13,19,22.70
2015,07,23,13,20,22.70
2015,07,23,13,21,22.80
2015,07,23,13,22,22.90
2015,07,23,13,23,23.00
2015,07,23,13,24,23.10
2015,07,23,13,25,23.20
2015,07,23,13,26,23.30
2015,07,23,13,27,23.40
2015,07,23,13,28,23.40
2015,07,23,13,29,23.50
2015,07,23,13,30,23.50
2015,07,23,13,31,23.50
2015,07,23,13,32,23.60
2015,07,23,13,33,23.70
2015,07,23,13,34,23.70
2015,07,23,13,35,23.70
2015,07,23,13,36,23.70
2015,07,23,13,37,23.60
2015,07,23,13,38,23.60
2015,07,23,13,39,23.60
2015,07,23,13,40,23.50
2015,07,23,13,41,23.40
2015,07,23,13,42,23.40
2015,07,23,13,43,23.40
2015,07,23,13,44,23.30
2015,07,23,13,45,23.30
2015,07,23,13,46,23.20
2015,07,23,13,47,23.20
2015,07,23,13,48,23.20
2015,07,23,13,49,23.20
2015,07,23,13,50,23.30
2015,07,23,13,51,23.30
2015,07,23,13,52,23.40
2015,07,23,13,53,23.40
2015,07,23,13,54,23.50
2015,07,23,13,55,23.60
2015,07,23,13,56,23.60
2015,07,23,13,57,23.60
2015,07,23,13,58,23.70
2015,07,23,13,59,23.70
2015,07,23,14,00,23.80
2015,07,23,14,01,23.90
2015,07,23,14,02,24.00
2015,07,23,14,03,24.10
2015,07,23,14,04,24.10
2015,07,23,14,05,24.20
2015,07,23,14,06,24.20
2015,07,23,14,07,24.20
2015,07,23,14,08,24.10
2015,07,23,14,09,24.00
2015,07,23,14,10,23.90
2015,07,23,14,11,23.90
2015,07,23,14,12,23.80
2015,07,23,14,13,23.70
2015,07,23,14,14,23.70
2015,07,23,14,15,23.70
2015,07,23,14,16,23.80
2015,07,23,14,17,23.80
2015,07,23,14,18,23.80
2015,07,23,14,19,23.80
2015,07,23,14,20,23.90
2015,07,23,14,21,23.90
2015,07,23,14,22,23.90
2015,07,23,14,23,23.90
2015,07,23,14,24,23.80
2015,07,23,14,25,23.60
2015,07,23,14,26,23.50
2015,07,23,14,27,23.40
2015,07,23,14,28,23.30
2015,07,23,14,29,23.20
2015,07,23,14,30,23.10
2015,07,23,14,31,23.00
2015,07,23,14,32,23.00
2015,07,23,14,33,22.90
2015,07,23,14,34,22.80
2015,07,23,14,35,22.70
2015,07,23,14,36,22.60
2015,07,23,14,37,22.60
2015,07,23,14,38,22.60
2015,07,23,14,39,22.60
2015,07,23,14,40,22.60
2015,07,23,14,41,22.60
2015,07,23,14,42,22.70
2015,07,23,14,43,22.70
2015,07,23,14,44,22.70
2015,07,23,14,45,22.80
2015,07,23,14,46,22.80
2015,07,23,14,47,22.90
2015,07,23,14,48,22.90
2015,07,23,14,49,23.00
2015,07,23,14,50,23.00
2015,07,23,14,51,23.00
2015,07,23,14,52,22.90
2015,07,23,14,53,22.90
2015,07,23,14,54,22.90
2015,07,23,14,55,22.90
2015,07,23,14,56,22.90
2015,07,23,14,57,23.00
2015,07,23,14,58,23.10
2015,07,23,14,59,23.30
2015,07,23,15,00,23.40
2015,07,23,15,01,23.60
2015,07,23,15,02,23.70
2015,07,23,15,03,23.80
2015,07,23,15,04,23.90
2015,07,23,15,05,24.00
2015,07,23,15,06,24.00
2015,07,23,15,07,24.00
2015,07,23,15,08,24.00
2015,07,23,15,09,24.10
2015,07,23,15,10,24.10
2015,07,23,15,11,24.10
2015,07,23,15,12,24.20
2015,07,23,15,13,24.30
2015,07,23,15,14,24.40
2015,07,23,15,15,24.50
2015,07,23,15,16,24.60
2015,07,23,15,17,24.60
2015,07,23,15,18,24.70
2015,07,23,15,19,24.70
2015,07,23,15,20,24.70
2015,07,23,15,21,24.60
2015,07,23,15,22,24.50
2015,07,23,15,23,24.40
2015,07,23,15,24,24.40
2015,07,23,15,25,24.40
2015,07,23,15,26,24.30
2015,07,23,15,27,24.20
2015,07,23,15,28,24.10
2015,07,23,15,29,24.00
2015,07,23,15,30,24.00
2015,07,23,15,31,24.00
2015,07,23,15,32,24.10
2015,07,23,15,33,24.20
2015,07,23,15,34,24.20
2015,07,23,15,35,24.20
2015,07,23,15,36,24.30
2015,07,23,15,37,24.20
2015,07,23,15,38,24.20
2015,07,23,15,39,24.00
2015,07,23,15,40,23.90
2015,07,23,15,41,23.70
2015,07,23,15,42,23.60
2015,07,23,15,43,23.50
2015,07,23,15,44,23.40
2015,07,23,15,45,23.40
2015,07,23,15,46,23.40
2015,07,23,15,47,23.40
2015,07,23,15,48,23.40
2015,07,23,15,49,23.40
2015,07,23,15,50,23.40
2015,07,23,15,51,23.50
2015,07,23,15,52,23.60
2015,07,23,15,53,23.60
2015,07,23,15,54,23.60
2015,07,23,15,55,23.70
2015,07,23,15,56,23.80
2015,07,23,15,57,23.80
2015,07,23,15,58,24.00
2015,07,23,15,59,24.10
2015,07,23,16,00,24.20
2015,07,23,16,01,24.30
2015,07,23,16,02,24.30
2015,07,23,16,03,24.30
2015,07,23,16,04,24.30
2015,07,23,16,05,24.30
2015,07,23,16,06,24.30
2015,07,23,16,07,24.30
2015,07,23,16,08,24.30
2015,07,23,16,09,24.30
2015,07,23,16,10,24.30
2015,07,23,16,11,24.40
2015,07,23,16,12,24.40
2015,07,23,16,13,24.50
2015,07,23,16,14,24.60
2015,07,23,16,15,24.60
2015,07,23,16,16,24.70
2015,07,23,16,17,24.80
2015,07,23,16,18,24.80
2015,07,23,16,19,24.90
2015,07,23,16,20,25.00
2015,07,23,16,21,25.10
2015,07,23,16,22,25.20
2015,07,23,16,23,25.20
2015,07,23,16,24,25.20
2015,07,23,16,25,25.10
2015,07,23,16,26,25.00
2015,07,23,16,27,24.80
2015,07,23,16,28,24.60
2015,07,23,16,29,24.50
2015,07,23,16,30,24.40
2015,07,23,16,31,24.30
2015,07,23,16,32,24.30
2015,07,23,16,33,24.30
2015,07,23,16,34,24.30
2015,07,23,16,35,24.30
2015,07,23,16,36,24.30
2015,07,23,16,37,24.30
2015,07,23,16,38,24.40
2015,07,23,16,39,24.50
2015,07,23,16,40,24.60
2015,07,23,16,41,24.60
2015,07,23,16,42,24.60
2015,07,23,16,43,24.60
2015,07,23,16,44,24.60
2015,07,23,16,45,24.60
2015,07,23,16,46,24.60
2015,07,23,16,47,24.50
2015,07,23,16,48,24.40
2015,07,23,16,49,24.30
2015,07,23,16,50,24.30
2015,07,23,16,51,24.20
2015,07,23,16,52,24.10
2015,07,23,16,53,24.00
2015,07,23,16,54,24.00
2015,07,23,16,55,23.90
2015,07,23,16,56,24.00
2015,07,23,16,57,24.00
2015,07,23,16,58,24.10
2015,07,23,16,59,24.20
2015,07,23,17,00,24.10
2015,07,23,17,01,24.10
2015,07,23,17,02,24.10
2015,07,23,17,03,24.00
2015,07,23,17,04,24.10
2015,07,23,17,05,24.10
2015,07,23,17,06,24.00
2015,07,23,17,07,24.10
2015,07,23,17,08,24.10
2015,07,23,17,09,24.10
2015,07,23,17,10,24.20
2015,07,23,17,11,24.20
2015,07,23,17,12,24.10
2015,07,23,17,13,24.20
2015,07,23,17,14,24.20
2015,07,23,17,15,24.20
2015,07,23,17,16,24.20
2015,07,23,17,17,24.20
2015,07,23,17,18,24.30
2015,07,23,17,19,24.30